Location: Newark
(33.9035°S, 18.4112°E)
Time: 00:46:37
(UTC+00:00)

STARLINK-1114 - Pass Details

Date: 23 January 2020
Orbit: 522 x 524 km, 53.0° (Epoch: 17 February)

Event Time Altitude Azimuth Distance (km) Brightness Sun altitude
Exits shadow 00:46:58 14° 103° (ESE) 1,474 6.2 -30.5°
Drops below altitude 10° 00:47:46 10° 111° (ESE) 1,733 6.7 -30.4°
Enters shadow 01:46:11 -66° 313° (NW) 12,227 10.4 -23.2°
Maximum altitude 02:23:05 30° 218° (SW) 931 4.8 -17.6°
